Location: El Mouella
(16.4949°N, 9.1594°W)
Time: 16:49:00
(UTC+00:00)

SWIFT - Pass Details

Date: 02 June 2020
Orbit: 545 x 560 km, 20.6° (Epoch: 05 July)

Event Time Altitude Azimuth Distance (km) Brightness Sun altitude
Rises 20:42:16 0° 268° (W) 2,724 6.8 -21.1°
Reaches altitude 10° 20:44:35 10° 272° (W) 1,829 5.8 -21.6°
Maximum altitude 20:48:47 59° 352° (N) 641 2.7 -22.4°
Enters shadow 20:49:40 47° 40° (NE) 733 2.8 -22.6°
